Location: Newark
(11.4947°N, 0.1467°E)
Time: 20:10:29
(UTC+00:00)

Envisat - Pass Details

Date: 18 November 2019
Orbit: 764 x 766 km, 98.1° (Epoch: 07 December)

Event Time Altitude Azimuth Distance (km) Brightness Sun altitude
Rises 17:43:45 0° 148° (SSE) 3,223 6.1 -3.6°
Reaches altitude 10° 17:46:15 10° 139° (SE) 2,297 5.3 -4.2°
Maximum altitude 17:50:44 33° 76° (ENE) 1,275 3.7 -5.2°
Drops below altitude 10° 17:55:13 10° 13° (NNE) 2,296 5.2 -6.2°
Sets 17:57:43 0° 4° (N) 3,221 6.0 -6.8°
